owner,sensor,date,latitude,longitude,vertical_datum,wind_speed,wind_to_direction,wind_speed_of_gust,qcFlag 
LOOP,urn:ioos:station:wmo:lopl1:1,2016-02-01T00:35:00Z,28.8850,-90.0250,10.0,5.3,170.0,6.3,'11111222,11111222,11111222' 
LOOP,urn:ioos:station:wmo:lopl1:1,2016-02-01T01:35:00Z,28.8850,-90.0250,10.0,9.5,169.0,10.7,'11111222,11111222,11111222' 
LOOP,urn:ioos:station:wmo:lopl1:1,2016-02-01T02:35:00Z,28.8850,-90.0250,10.0,9.1,169.0,9.7,'11111222,11111222,11111222' 
LOOP,urn:ioos:station:wmo:lopl1:1,2016-02-01T03:35:00Z,28.8850,-90.0250,10.0,9.2,178.0,9.9,'11111222,11111222,11111222' 
LOOP,urn:ioos:station:wmo:lopl1:1,2016-02-01T04:35:00Z,28.8850,-90.0250,10.0,8.5,-9999.0,8.9,'11111222,99999999,11111222' 
LOOP,urn:ioos:station:wmo:lopl1:1,2016-02-01T05:35:00Z,28.8850,-90.0250,10.0,7.8,-9999.0,8.5,'11111222,99999999,11111222' 
LOOP,urn:ioos:station:wmo:lopl1:1,2016-02-01T06:35:00Z,28.8850,-90.0250,10.0,9.5,-9999.0,9.9,'11111222,99999999,11111222' 
LOOP,urn:ioos:station:wmo:lopl1:1,2016-02-01T07:35:00Z,28.8850,-90.0250,10.0,8.2,-9999.0,8.5,'11111222,99999999,11111222' 
LOOP,urn:ioos:station:wmo:lopl1:1,2016-02-01T08:35:00Z,28.8850,-90.0250,10.0,8.8,-9999.0,9.4,'11111222,99999999,11111222' 
LOOP,urn:ioos:station:wmo:lopl1:1,2016-02-01T09:35:00Z,28.8850,-90.0250,10.0,9.3,-9999.0,9.6,'11111222,99999999,11111222' 
LOOP,urn:ioos:station:wmo:lopl1:1,2016-02-01T10:35:00Z,28.8850,-90.0250,10.0,8.8,-9999.0,9.2,'11111222,99999999,11111222' 
LOOP,urn:ioos:station:wmo:lopl1:1,2016-02-01T14:35:00Z,28.8850,-90.0250,10.0,6.6,-9999.0,6.9,'11111222,99999999,11111222' 
LOOP,urn:ioos:station:wmo:lopl1:1,2016-02-01T15:00:00Z,28.8850,-90.0250,10.0,6.3,-9999.0,6.7,'11111222,99999999,11111222' 
LOOP,urn:ioos:station:wmo:lopl1:1,2016-02-01T16:00:00Z,28.8850,-90.0250,10.0,6.1,172.0,6.9,'11111222,11111222,11111222' 
LOOP,urn:ioos:station:wmo:lopl1:1,2016-02-01T17:00:00Z,28.8850,-90.0250,10.0,7.8,171.0,8.7,'11111222,11111222,11111222' 
LOOP,urn:ioos:station:wmo:lopl1:1,2016-02-01T18:00:00Z,28.8850,-90.0250,10.0,7.6,167.0,8.2,'11111222,11111222,11111222' 
LOOP,urn:ioos:station:wmo:lopl1:1,2016-02-01T19:00:00Z,28.8850,-90.0250,10.0,7.3,158.0,7.7,'11111222,11111222,11111222' 
LOOP,urn:ioos:station:wmo:lopl1:1,2016-02-01T20:00:00Z,28.8850,-90.0250,10.0,8.2,149.0,8.4,'11111222,11111222,11111222' 
LOOP,urn:ioos:station:wmo:lopl1:1,2016-02-01T21:00:00Z,28.8850,-90.0250,10.0,9.4,149.0,9.6,'11111222,11111222,11111222' 
LOOP,urn:ioos:station:wmo:lopl1:1,2016-02-01T22:00:00Z,28.8850,-90.0250,10.0,9.9,144.0,10.3,'11111222,11111222,11111222' 
LOOP,urn:ioos:station:wmo:lopl1:1,2016-02-01T23:00:00Z,28.8850,-90.0250,10.0,9.8,133.0,10.1,'11111222,11111222,11111222' 
LOOP,urn:ioos:station:wmo:lopl1:1,2016-02-02T00:05:00Z,28.8850,-90.0250,10.0,11.4,139.0,12.0,'11111222,11111222,11111222' 
LOOP,urn:ioos:station:wmo:lopl1:1,2016-02-02T01:05:00Z,28.8850,-90.0250,10.0,10.6,149.0,10.9,'11111222,11111222,11111222' 
LOOP,urn:ioos:station:wmo:lopl1:1,2016-02-02T02:05:00Z,28.8850,-90.0250,10.0,11.3,146.0,12.2,'11111222,11111222,11111222' 
LOOP,urn:ioos:station:wmo:lopl1:1,2016-02-02T03:05:00Z,28.8850,-90.0250,10.0,11.0,155.0,11.4,'11111222,11111222,11111222' 
LOOP,urn:ioos:station:wmo:lopl1:1,2016-02-02T04:05:00Z,28.8850,-90.0250,10.0,9.6,159.0,9.9,'11111222,11111222,11111222' 
LOOP,urn:ioos:station:wmo:lopl1:1,2016-02-02T05:05:00Z,28.8850,-90.0250,10.0,11.4,159.0,12.1,'11111222,11111222,11111222' 
LOOP,urn:ioos:station:wmo:lopl1:1,2016-02-02T06:05:00Z,28.8850,-90.0250,10.0,13.6,160.0,14.0,'11111222,11111222,11111222' 
LOOP,urn:ioos:station:wmo:lopl1:1,2016-02-02T07:05:00Z,28.8850,-90.0250,10.0,11.5,157.0,12.1,'11111222,11111222,11111222' 
LOOP,urn:ioos:station:wmo:lopl1:1,2016-02-02T08:05:00Z,28.8850,-90.0250,10.0,11.0,154.0,11.5,'11111222,11111222,11111222' 
LOOP,urn:ioos:station:wmo:lopl1:1,2016-02-02T09:05:00Z,28.8850,-90.0250,10.0,10.9,150.0,12.4,'11111222,11111222,11111222' 
LOOP,urn:ioos:station:wmo:lopl1:1,2016-02-02T10:05:00Z,28.8850,-90.0250,10.0,11.2,150.0,11.7,'11111222,11111222,11111222' 
LOOP,urn:ioos:station:wmo:lopl1:1,2016-02-02T11:05:00Z,28.8850,-90.0250,10.0,12.5,162.0,13.5,'11111222,11111222,11111222' 
LOOP,urn:ioos:station:wmo:lopl1:1,2016-02-02T12:05:00Z,28.8850,-90.0250,10.0,12.4,164.0,13.3,'11111222,11111222,11111222' 
LOOP,urn:ioos:station:wmo:lopl1:1,2016-02-02T13:05:00Z,28.8850,-90.0250,10.0,13.1,165.0,14.3,'11111222,11111222,11111222' 
LOOP,urn:ioos:station:wmo:lopl1:1,2016-02-02T14:05:00Z,28.8850,-90.0250,10.0,12.1,163.0,12.6,'11111222,11111222,11111222' 
LOOP,urn:ioos:station:wmo:lopl1:1,2016-02-02T15:05:00Z,28.8850,-90.0250,10.0,12.6,162.0,13.5,'11111222,11111222,11111222' 
LOOP,urn:ioos:station:wmo:lopl1:1,2016-02-02T16:10:00Z,28.8850,-90.0250,10.0,9.9,165.0,10.3,'11111222,11111222,11111222' 
LOOP,urn:ioos:station:wmo:lopl1:1,2016-02-02T17:10:00Z,28.8850,-90.0250,10.0,10.7,171.0,11.3,'11111222,11111222,11111222' 
LOOP,urn:ioos:station:wmo:lopl1:1,2016-02-02T18:10:00Z,28.8850,-90.0250,10.0,12.3,174.0,12.7,'11111222,11111222,11111222' 
LOOP,urn:ioos:station:wmo:lopl1:1,2016-02-02T19:15:00Z,28.8850,-90.0250,10.0,13.7,171.0,14.9,'11111222,11111222,11111222' 
LOOP,urn:ioos:station:wmo:lopl1:1,2016-02-02T20:15:00Z,28.8850,-90.0250,10.0,13.6,167.0,14.3,'11111222,11111222,11111222' 
LOOP,urn:ioos:station:wmo:lopl1:1,2016-02-02T21:15:00Z,28.8850,-90.0250,10.0,13.1,170.0,13.9,'11111222,11111222,11111222' 
LOOP,urn:ioos:station:wmo:lopl1:1,2016-02-02T22:15:00Z,28.8850,-90.0250,10.0,11.7,175.0,12.4,'11111222,11111222,11111222' 
LOOP,urn:ioos:station:wmo:lopl1:1,2016-02-02T23:15:00Z,28.8850,-90.0250,10.0,12.0,174.0,12.5,'11111222,11111222,11111222' 
LOOP,urn:ioos:station:wmo:lopl1:1,2016-02-03T00:15:00Z,28.8850,-90.0250,10.0,13.4,168.0,14.6,'11111222,11111222,11111222' 
LOOP,urn:ioos:station:wmo:lopl1:1,2016-02-03T01:15:00Z,28.8850,-90.0250,10.0,10.5,173.0,11.8,'11111222,11111222,11111222' 
LOOP,urn:ioos:station:wmo:lopl1:1,2016-02-03T02:15:00Z,28.8850,-90.0250,10.0,11.2,171.0,11.9,'11111222,11111222,11111222' 
LOOP,urn:ioos:station:wmo:lopl1:1,2016-02-03T03:20:00Z,28.8850,-90.0250,10.0,11.2,174.0,11.8,'11111222,11111222,11111222' 
LOOP,urn:ioos:station:wmo:lopl1:1,2016-02-03T04:20:00Z,28.8850,-90.0250,10.0,11.1,-9999.0,11.5,'11111222,99999999,11111222' 
LOOP,urn:ioos:station:wmo:lopl1:1,2016-02-03T05:20:00Z,28.8850,-90.0250,10.0,11.2,-9999.0,11.6,'11111222,99999999,11111222' 
LOOP,urn:ioos:station:wmo:lopl1:1,2016-02-03T06:20:00Z,28.8850,-90.0250,10.0,11.2,-9999.0,11.7,'11111222,99999999,11111222' 
LOOP,urn:ioos:station:wmo:lopl1:1,2016-02-03T07:25:00Z,28.8850,-90.0250,10.0,11.3,-9999.0,11.9,'11111222,99999999,11111222' 
LOOP,urn:ioos:station:wmo:lopl1:1,2016-02-03T08:25:00Z,28.8850,-90.0250,10.0,7.3,-9999.0,8.1,'11111222,99999999,11111222' 
LOOP,urn:ioos:station:wmo:lopl1:1,2016-02-03T09:25:00Z,28.8850,-90.0250,10.0,11.9,-9999.0,12.6,'11111222,99999999,11111222' 
LOOP,urn:ioos:station:wmo:lopl1:1,2016-02-03T10:25:00Z,28.8850,-90.0250,10.0,7.6,0.0,10.1,'11111222,11111222,11111222' 
LOOP,urn:ioos:station:wmo:lopl1:1,2016-02-03T11:25:00Z,28.8850,-90.0250,10.0,13.1,4.0,16.0,'11111222,11111222,11111222' 
LOOP,urn:ioos:station:wmo:lopl1:1,2016-02-03T12:25:00Z,28.8850,-90.0250,10.0,12.2,10.0,14.7,'11111222,11111222,11111222' 
LOOP,urn:ioos:station:wmo:lopl1:1,2016-02-03T13:25:00Z,28.8850,-90.0250,10.0,11.3,12.0,14.2,'11111222,11111222,11111222' 
LOOP,urn:ioos:station:wmo:lopl1:1,2016-02-03T14:25:00Z,28.8850,-90.0250,10.0,10.4,1.0,12.3,'11111222,11111222,11111222' 
LOOP,urn:ioos:station:wmo:lopl1:1,2016-02-03T15:25:00Z,28.8850,-90.0250,10.0,11.6,4.0,13.8,'11111222,11111222,11111222' 
LOOP,urn:ioos:station:wmo:lopl1:1,2016-02-03T16:25:00Z,28.8850,-90.0250,10.0,12.8,11.0,15.4,'11111222,11111222,11111222' 
LOOP,urn:ioos:station:wmo:lopl1:1,2016-02-03T17:31:00Z,28.8850,-90.0250,10.0,10.0,8.0,12.1,'11111222,11111222,11111222' 
LOOP,urn:ioos:station:wmo:lopl1:1,2016-02-03T18:31:00Z,28.8850,-90.0250,10.0,8.0,14.0,10.3,'11111222,11111222,11111222' 
LOOP,urn:ioos:station:wmo:lopl1:1,2016-02-03T19:31:00Z,28.8850,-90.0250,10.0,10.4,11.0,11.9,'11111222,11111222,11111222' 
LOOP,urn:ioos:station:wmo:lopl1:1,2016-02-03T20:31:00Z,28.8850,-90.0250,10.0,8.7,12.0,10.4,'11111222,11111222,11111222' 
LOOP,urn:ioos:station:wmo:lopl1:1,2016-02-03T21:31:00Z,28.8850,-90.0250,10.0,9.4,3.0,10.2,'11111222,11111222,11111222' 
LOOP,urn:ioos:station:wmo:lopl1:1,2016-02-03T22:31:00Z,28.8850,-90.0250,10.0,7.3,10.0,8.4,'11111222,11111222,11111222' 
LOOP,urn:ioos:station:wmo:lopl1:1,2016-02-03T23:31:00Z,28.8850,-90.0250,10.0,6.8,0.0,8.1,'11111222,11111222,11111222' 
LOOP,urn:ioos:station:wmo:lopl1:1,2016-02-04T00:31:00Z,28.8850,-90.0250,10.0,6.4,349.0,7.8,'11111222,11111222,11111222' 
LOOP,urn:ioos:station:wmo:lopl1:1,2016-02-04T01:31:00Z,28.8850,-90.0250,10.0,9.5,356.0,11.6,'11111222,11111222,11111222' 
LOOP,urn:ioos:station:wmo:lopl1:1,2016-02-04T02:31:00Z,28.8850,-90.0250,10.0,9.2,351.0,12.2,'11111222,11111222,11111222' 
LOOP,urn:ioos:station:wmo:lopl1:1,2016-02-04T03:31:00Z,28.8850,-90.0250,10.0,11.3,354.0,13.9,'11111222,11111222,11111222' 
LOOP,urn:ioos:station:wmo:lopl1:1,2016-02-04T04:41:00Z,28.8850,-90.0250,10.0,10.1,357.0,11.9,'11111222,11111222,11111222' 
LOOP,urn:ioos:station:wmo:lopl1:1,2016-02-04T05:41:00Z,28.8850,-90.0250,10.0,12.6,359.0,15.4,'11111222,11111222,11111222' 
LOOP,urn:ioos:station:wmo:lopl1:1,2016-02-04T06:41:00Z,28.8850,-90.0250,10.0,13.5,350.0,16.4,'11111222,11111222,11111222' 
LOOP,urn:ioos:station:wmo:lopl1:1,2016-02-04T07:41:00Z,28.8850,-90.0250,10.0,15.3,1.0,17.7,'11111222,11111222,11111222' 
LOOP,urn:ioos:station:wmo:lopl1:1,2016-02-04T08:41:00Z,28.8850,-90.0250,10.0,14.6,0.0,17.2,'11111222,11111222,11111222' 
LOOP,urn:ioos:station:wmo:lopl1:1,2016-02-04T09:41:00Z,28.8850,-90.0250,10.0,14.4,11.0,16.6,'11111222,11111222,11111222' 
LOOP,urn:ioos:station:wmo:lopl1:1,2016-02-04T10:46:00Z,28.8850,-90.0250,10.0,13.9,1.0,16.4,'11111222,11111222,11111222' 
LOOP,urn:ioos:station:wmo:lopl1:1,2016-02-04T11:46:00Z,28.8850,-90.0250,10.0,14.8,0.0,17.0,'11111222,11111222,11111222' 
LOOP,urn:ioos:station:wmo:lopl1:1,2016-02-04T12:46:00Z,28.8850,-90.0250,10.0,14.4,6.0,16.4,'11111222,11111222,11111222' 
LOOP,urn:ioos:station:wmo:lopl1:1,2016-02-04T13:46:00Z,28.8850,-90.0250,10.0,13.6,8.0,15.5,'11111222,11111222,11111222' 
LOOP,urn:ioos:station:wmo:lopl1:1,2016-02-04T14:46:00Z,28.8850,-90.0250,10.0,13.2,6.0,14.7,'11111222,11111222,11111222' 
LOOP,urn:ioos:station:wmo:lopl1:1,2016-02-04T15:46:00Z,28.8850,-90.0250,10.0,12.5,359.0,14.6,'11111222,11111222,11111222' 
LOOP,urn:ioos:station:wmo:lopl1:1,2016-02-04T16:51:00Z,28.8850,-90.0250,10.0,10.4,352.0,13.3,'11111222,11111222,11111222' 
LOOP,urn:ioos:station:wmo:lopl1:1,2016-02-04T17:51:00Z,28.8850,-90.0250,10.0,9.9,350.0,13.5,'11111222,11111222,11111222' 
LOOP,urn:ioos:station:wmo:lopl1:1,2016-02-04T18:51:00Z,28.8850,-90.0250,10.0,10.1,344.0,13.5,'11111222,11111222,11111222' 
LOOP,urn:ioos:station:wmo:lopl1:1,2016-02-04T19:51:00Z,28.8850,-90.0250,10.0,9.1,324.0,11.8,'11111222,11111222,11111222' 
LOOP,urn:ioos:station:wmo:lopl1:1,2016-02-04T20:51:00Z,28.8850,-90.0250,10.0,8.6,349.0,11.4,'11111222,11111222,11111222' 
LOOP,urn:ioos:station:wmo:lopl1:1,2016-02-04T21:51:00Z,28.8850,-90.0250,10.0,10.0,348.0,13.8,'11111222,11111222,11111222' 
LOOP,urn:ioos:station:wmo:lopl1:1,2016-02-04T22:51:00Z,28.8850,-90.0250,10.0,11.1,348.0,15.8,'11111222,11111222,11111222' 
LOOP,urn:ioos:station:wmo:lopl1:1,2016-02-04T23:51:00Z,28.8850,-90.0250,10.0,12.1,352.0,15.5,'11111222,11111222,11111222' 
LOOP,urn:ioos:station:wmo:lopl1:1,2016-02-05T00:51:00Z,28.8850,-90.0250,10.0,16.3,350.0,18.6,'11111222,11111222,11111222' 
LOOP,urn:ioos:station:wmo:lopl1:1,2016-02-05T01:51:00Z,28.8850,-90.0250,10.0,13.9,358.0,16.5,'11111222,11111222,11111222' 
LOOP,urn:ioos:station:wmo:lopl1:1,2016-02-05T02:51:00Z,28.8850,-90.0250,10.0,14.7,14.0,18.4,'11111222,11111222,11111222' 
LOOP,urn:ioos:station:wmo:lopl1:1,2016-02-05T03:51:00Z,28.8850,-90.0250,10.0,15.8,11.0,19.1,'11111222,11111222,11111222' 
LOOP,urn:ioos:station:wmo:lopl1:1,2016-02-05T04:51:00Z,28.8850,-90.0250,10.0,14.7,4.0,16.2,'11111222,11111222,11111222' 
LOOP,urn:ioos:station:wmo:lopl1:1,2016-02-05T05:51:00Z,28.8850,-90.0250,10.0,13.9,18.0,16.2,'11111222,11111222,11111222' 
LOOP,urn:ioos:station:wmo:lopl1:1,2016-02-05T06:51:00Z,28.8850,-90.0250,10.0,12.8,8.0,16.1,'11111222,11111222,11111222' 
LOOP,urn:ioos:station:wmo:lopl1:1,2016-02-05T07:51:00Z,28.8850,-90.0250,10.0,13.7,9.0,16.1,'11111222,11111222,11111222' 
LOOP,urn:ioos:station:wmo:lopl1:1,2016-02-05T08:51:00Z,28.8850,-90.0250,10.0,11.7,12.0,13.8,'11111222,11111222,11111222' 
LOOP,urn:ioos:station:wmo:lopl1:1,2016-02-05T09:51:00Z,28.8850,-90.0250,10.0,11.5,19.0,13.7,'11111222,11111222,11111222' 
LOOP,urn:ioos:station:wmo:lopl1:1,2016-02-05T10:51:00Z,28.8850,-90.0250,10.0,10.3,29.0,13.4,'11111222,11111222,11111222' 
LOOP,urn:ioos:station:wmo:lopl1:1,2016-02-05T11:51:00Z,28.8850,-90.0250,10.0,8.7,11.0,11.0,'11111222,11111222,11111222' 
LOOP,urn:ioos:station:wmo:lopl1:1,2016-02-05T12:51:00Z,28.8850,-90.0250,10.0,9.7,24.0,12.1,'11111222,11111222,11111222' 
LOOP,urn:ioos:station:wmo:lopl1:1,2016-02-05T13:51:00Z,28.8850,-90.0250,10.0,8.2,17.0,10.9,'11111222,11111222,11111222' 
LOOP,urn:ioos:station:wmo:lopl1:1,2016-02-05T15:11:00Z,28.8850,-90.0250,10.0,9.2,9.0,11.5,'11111222,11111222,11111222' 
LOOP,urn:ioos:station:wmo:lopl1:1,2016-02-05T15:26:00Z,28.8850,-90.0250,10.0,9.3,28.0,11.6,'11111222,11111222,11111222' 
LOOP,urn:ioos:station:wmo:lopl1:1,2016-02-05T16:41:00Z,28.8850,-90.0250,10.0,8.4,25.0,10.6,'11111222,11111222,11111222' 
LOOP,urn:ioos:station:wmo:lopl1:1,2016-02-05T17:41:00Z,28.8850,-90.0250,10.0,7.6,33.0,10.6,'11111222,11111222,11111222' 
LOOP,urn:ioos:station:wmo:lopl1:1,2016-02-05T18:41:00Z,28.8850,-90.0250,10.0,7.3,23.0,10.0,'11111222,11111222,11111222' 
LOOP,urn:ioos:station:wmo:lopl1:1,2016-02-05T19:41:00Z,28.8850,-90.0250,10.0,7.9,38.0,10.1,'11111222,11111222,11111222' 
LOOP,urn:ioos:station:wmo:lopl1:1,2016-02-05T20:41:00Z,28.8850,-90.0250,10.0,7.1,15.0,9.5,'11111222,11111222,11111222' 
LOOP,urn:ioos:station:wmo:lopl1:1,2016-02-05T21:46:00Z,28.8850,-90.0250,10.0,6.4,31.0,9.0,'11111222,11111222,11111222' 
LOOP,urn:ioos:station:wmo:lopl1:1,2016-02-05T22:46:00Z,28.8850,-90.0250,10.0,6.7,23.0,8.7,'11111222,11111222,11111222' 
LOOP,urn:ioos:station:wmo:lopl1:1,2016-02-05T23:46:00Z,28.8850,-90.0250,10.0,6.3,50.0,8.5,'11111222,11111222,11111222' 
LOOP,urn:ioos:station:wmo:lopl1:1,2016-02-06T00:46:00Z,28.8850,-90.0250,10.0,6.1,56.0,8.4,'11111222,11111222,11111222' 
LOOP,urn:ioos:station:wmo:lopl1:1,2016-02-06T01:46:00Z,28.8850,-90.0250,10.0,5.9,42.0,7.8,'11111222,11111222,11111222' 
LOOP,urn:ioos:station:wmo:lopl1:1,2016-02-06T02:46:00Z,28.8850,-90.0250,10.0,7.1,41.0,9.4,'11111222,11111222,11111222' 
LOOP,urn:ioos:station:wmo:lopl1:1,2016-02-06T03:46:00Z,28.8850,-90.0250,10.0,6.3,54.0,9.4,'11111222,11111222,11111222' 
LOOP,urn:ioos:station:wmo:lopl1:1,2016-02-06T04:46:00Z,28.8850,-90.0250,10.0,6.7,63.0,9.6,'11111222,11111222,11111222' 
LOOP,urn:ioos:station:wmo:lopl1:1,2016-02-06T05:46:00Z,28.8850,-90.0250,10.0,5.5,69.0,7.3,'11111222,11111222,11111222' 
LOOP,urn:ioos:station:wmo:lopl1:1,2016-02-06T06:46:00Z,28.8850,-90.0250,10.0,5.0,47.0,6.8,'11111222,11111222,11111222' 
LOOP,urn:ioos:station:wmo:lopl1:1,2016-02-06T07:46:00Z,28.8850,-90.0250,10.0,3.6,59.0,5.4,'11111222,11111222,11111222' 
LOOP,urn:ioos:station:wmo:lopl1:1,2016-02-06T08:46:00Z,28.8850,-90.0250,10.0,3.3,37.0,5.2,'11111222,11111222,11111222' 
LOOP,urn:ioos:station:wmo:lopl1:1,2016-02-06T09:46:00Z,28.8850,-90.0250,10.0,4.2,23.0,5.8,'11111222,11111222,11111222' 
LOOP,urn:ioos:station:wmo:lopl1:1,2016-02-06T10:46:00Z,28.8850,-90.0250,10.0,4.5,18.0,5.8,'11111222,11111222,11111222' 
LOOP,urn:ioos:station:wmo:lopl1:1,2016-02-06T11:46:00Z,28.8850,-90.0250,10.0,6.8,9.0,8.1,'11111222,11111222,11111222' 
LOOP,urn:ioos:station:wmo:lopl1:1,2016-02-06T12:46:00Z,28.8850,-90.0250,10.0,8.0,29.0,11.4,'11111222,11111222,11111222' 
LOOP,urn:ioos:station:wmo:lopl1:1,2016-02-06T13:46:00Z,28.8850,-90.0250,10.0,7.6,63.0,10.6,'11111222,11111222,11111222' 
LOOP,urn:ioos:station:wmo:lopl1:1,2016-02-06T14:46:00Z,28.8850,-90.0250,10.0,7.8,64.0,9.3,'11111222,11111222,11111222' 
LOOP,urn:ioos:station:wmo:lopl1:1,2016-02-06T15:01:00Z,28.8850,-90.0250,10.0,7.4,69.0,9.4,'11111222,11111222,11111222' 
LOOP,urn:ioos:station:wmo:lopl1:1,2016-02-06T16:01:00Z,28.8850,-90.0250,10.0,6.2,54.0,8.3,'11111222,11111222,11111222' 
LOOP,urn:ioos:station:wmo:lopl1:1,2016-02-06T17:01:00Z,28.8850,-90.0250,10.0,6.4,53.0,8.4,'11111222,11111222,11111222' 
LOOP,urn:ioos:station:wmo:lopl1:1,2016-02-06T18:01:00Z,28.8850,-90.0250,10.0,5.2,32.0,8.1,'11111222,11111222,11111222' 
LOOP,urn:ioos:station:wmo:lopl1:1,2016-02-06T19:01:00Z,28.8850,-90.0250,10.0,5.1,28.0,6.9,'11111222,11111222,11111222' 
LOOP,urn:ioos:station:wmo:lopl1:1,2016-02-06T20:01:00Z,28.8850,-90.0250,10.0,4.8,57.0,6.1,'11111222,11111222,11111222' 
LOOP,urn:ioos:station:wmo:lopl1:1,2016-02-06T21:01:00Z,28.8850,-90.0250,10.0,4.2,31.0,6.1,'11111222,11111222,11111222' 
LOOP,urn:ioos:station:wmo:lopl1:1,2016-02-06T22:01:00Z,28.8850,-90.0250,10.0,4.3,35.0,5.6,'11111222,11111222,11111222' 
LOOP,urn:ioos:station:wmo:lopl1:1,2016-02-06T23:01:00Z,28.8850,-90.0250,10.0,5.0,14.0,6.0,'11111222,11111222,11111222' 
LOOP,urn:ioos:station:wmo:lopl1:1,2016-02-07T00:01:00Z,28.8850,-90.0250,10.0,5.8,18.0,7.1,'11111222,11111222,11111222' 
LOOP,urn:ioos:station:wmo:lopl1:1,2016-02-07T01:01:00Z,28.8850,-90.0250,10.0,4.6,24.0,6.7,'11111222,11111222,11111222' 
LOOP,urn:ioos:station:wmo:lopl1:1,2016-02-07T02:01:00Z,28.8850,-90.0250,10.0,5.3,16.0,6.7,'11111222,11111222,11111222' 
LOOP,urn:ioos:station:wmo:lopl1:1,2016-02-07T03:01:00Z,28.8850,-90.0250,10.0,7.8,359.0,9.8,'11111222,11111222,11111222' 
LOOP,urn:ioos:station:wmo:lopl1:1,2016-02-07T04:06:00Z,28.8850,-90.0250,10.0,7.0,350.0,9.7,'11111222,11111222,11111222' 
LOOP,urn:ioos:station:wmo:lopl1:1,2016-02-07T05:06:00Z,28.8850,-90.0250,10.0,6.7,0.0,8.4,'11111222,11111222,11111222' 
LOOP,urn:ioos:station:wmo:lopl1:1,2016-02-07T06:06:00Z,28.8850,-90.0250,10.0,6.8,342.0,8.6,'11111222,11111222,11111222' 
LOOP,urn:ioos:station:wmo:lopl1:1,2016-02-07T07:06:00Z,28.8850,-90.0250,10.0,6.5,346.0,8.5,'11111222,11111222,11111222' 
LOOP,urn:ioos:station:wmo:lopl1:1,2016-02-07T08:06:00Z,28.8850,-90.0250,10.0,6.9,345.0,8.7,'11111222,11111222,11111222' 
LOOP,urn:ioos:station:wmo:lopl1:1,2016-02-07T09:06:00Z,28.8850,-90.0250,10.0,6.9,340.0,8.4,'11111222,11111222,11111222' 
LOOP,urn:ioos:station:wmo:lopl1:1,2016-02-07T10:06:00Z,28.8850,-90.0250,10.0,7.5,351.0,9.6,'11111222,11111222,11111222' 
LOOP,urn:ioos:station:wmo:lopl1:1,2016-02-07T11:06:00Z,28.8850,-90.0250,10.0,7.7,358.0,9.2,'11111222,11111222,11111222' 
LOOP,urn:ioos:station:wmo:lopl1:1,2016-02-07T12:06:00Z,28.8850,-90.0250,10.0,6.4,3.0,7.8,'11111222,11111222,11111222' 
LOOP,urn:ioos:station:wmo:lopl1:1,2016-02-07T13:06:00Z,28.8850,-90.0250,10.0,5.8,12.0,7.5,'11111222,11111222,11111222' 
LOOP,urn:ioos:station:wmo:lopl1:1,2016-02-07T14:11:00Z,28.8850,-90.0250,10.0,5.5,15.0,7.0,'11111222,11111222,11111222' 
LOOP,urn:ioos:station:wmo:lopl1:1,2016-02-07T15:11:00Z,28.8850,-90.0250,10.0,5.1,14.0,6.5,'11111222,11111222,11111222' 
LOOP,urn:ioos:station:wmo:lopl1:1,2016-02-07T16:11:00Z,28.8850,-90.0250,10.0,6.1,24.0,7.6,'11111222,11111222,11111222' 
LOOP,urn:ioos:station:wmo:lopl1:1,2016-02-07T17:11:00Z,28.8850,-90.0250,10.0,4.3,27.0,5.9,'11111222,11111222,11111222' 
LOOP,urn:ioos:station:wmo:lopl1:1,2016-02-07T18:11:00Z,28.8850,-90.0250,10.0,4.2,22.0,5.8,'11111222,11111222,11111222' 
LOOP,urn:ioos:station:wmo:lopl1:1,2016-02-07T19:11:00Z,28.8850,-90.0250,10.0,5.1,11.0,6.2,'11111222,11111222,11111222' 
LOOP,urn:ioos:station:wmo:lopl1:1,2016-02-07T20:11:00Z,28.8850,-90.0250,10.0,2.7,10.0,3.8,'11111222,11111222,11111222' 
LOOP,urn:ioos:station:wmo:lopl1:1,2016-02-07T21:11:00Z,28.8850,-90.0250,10.0,1.5,-9999.0,2.4,'11111222,99999999,11111222' 
LOOP,urn:ioos:station:wmo:lopl1:1,2016-02-07T22:11:00Z,28.8850,-90.0250,10.0,3.9,-9999.0,5.0,'11111222,99999999,11111222' 
LOOP,urn:ioos:station:wmo:lopl1:1,2016-02-07T23:11:00Z,28.8850,-90.0250,10.0,4.3,-9999.0,5.1,'11111222,99999999,11111222' 
LOOP,urn:ioos:station:wmo:lopl1:1,2016-02-08T00:21:00Z,28.8850,-90.0250,10.0,4.8,-9999.0,7.3,'11111222,99999999,11111222' 
LOOP,urn:ioos:station:wmo:lopl1:1,2016-02-08T01:21:00Z,28.8850,-90.0250,10.0,6.2,271.0,8.2,'11111222,11111222,11111222' 
LOOP,urn:ioos:station:wmo:lopl1:1,2016-02-08T02:21:00Z,28.8850,-90.0250,10.0,6.4,280.0,8.0,'11111222,11111222,11111222' 
LOOP,urn:ioos:station:wmo:lopl1:1,2016-02-08T03:21:00Z,28.8850,-90.0250,10.0,7.9,277.0,8.9,'11111222,11111222,11111222' 
LOOP,urn:ioos:station:wmo:lopl1:1,2016-02-08T04:21:00Z,28.8850,-90.0250,10.0,9.1,282.0,10.0,'11111222,11111222,11111222' 
LOOP,urn:ioos:station:wmo:lopl1:1,2016-02-08T05:21:00Z,28.8850,-90.0250,10.0,7.4,284.0,8.7,'11111222,11111222,11111222' 
LOOP,urn:ioos:station:wmo:lopl1:1,2016-02-08T06:21:00Z,28.8850,-90.0250,10.0,6.8,290.0,8.0,'11111222,11111222,11111222' 
LOOP,urn:ioos:station:wmo:lopl1:1,2016-02-08T07:21:00Z,28.8850,-90.0250,10.0,8.6,291.0,10.4,'11111222,11111222,11111222' 
LOOP,urn:ioos:station:wmo:lopl1:1,2016-02-08T08:21:00Z,28.8850,-90.0250,10.0,8.4,306.0,9.5,'11111222,11111222,11111222' 
LOOP,urn:ioos:station:wmo:lopl1:1,2016-02-08T09:21:00Z,28.8850,-90.0250,10.0,8.4,280.0,9.7,'11111222,11111222,11111222' 
LOOP,urn:ioos:station:wmo:lopl1:1,2016-02-08T10:21:00Z,28.8850,-90.0250,10.0,8.6,287.0,10.5,'11111222,11111222,11111222' 
LOOP,urn:ioos:station:wmo:lopl1:1,2016-02-08T11:21:00Z,28.8850,-90.0250,10.0,7.9,284.0,10.1,'11111222,11111222,11111222' 
LOOP,urn:ioos:station:wmo:lopl1:1,2016-02-08T12:26:00Z,28.8850,-90.0250,10.0,10.7,285.0,12.0,'11111222,11111222,11111222' 
LOOP,urn:ioos:station:wmo:lopl1:1,2016-02-08T13:26:00Z,28.8850,-90.0250,10.0,12.9,297.0,15.7,'11111222,11111222,11111222' 
LOOP,urn:ioos:station:wmo:lopl1:1,2016-02-08T14:26:00Z,28.8850,-90.0250,10.0,15.2,305.0,17.8,'11111222,11111222,11111222' 
LOOP,urn:ioos:station:wmo:lopl1:1,2016-02-08T15:26:00Z,28.8850,-90.0250,10.0,11.0,290.0,12.4,'11111222,11111222,11111222' 
LOOP,urn:ioos:station:wmo:lopl1:1,2016-02-08T16:26:00Z,28.8850,-90.0250,10.0,12.4,306.0,14.3,'11111222,11111222,11111222' 
LOOP,urn:ioos:station:wmo:lopl1:1,2016-02-08T17:26:00Z,28.8850,-90.0250,10.0,13.2,301.0,15.7,'11111222,11111222,11111222' 
LOOP,urn:ioos:station:wmo:lopl1:1,2016-02-08T18:26:00Z,28.8850,-90.0250,10.0,14.7,289.0,16.8,'11111222,11111222,11111222' 
LOOP,urn:ioos:station:wmo:lopl1:1,2016-02-08T19:31:00Z,28.8850,-90.0250,10.0,16.7,286.0,19.1,'11111222,11111222,11111222' 
LOOP,urn:ioos:station:wmo:lopl1:1,2016-02-08T20:31:00Z,28.8850,-90.0250,10.0,15.5,301.0,19.8,'11111222,11111222,11111222' 
LOOP,urn:ioos:station:wmo:lopl1:1,2016-02-08T21:31:00Z,28.8850,-90.0250,10.0,14.8,301.0,18.3,'11111222,11111222,11111222' 
LOOP,urn:ioos:station:wmo:lopl1:1,2016-02-08T22:31:00Z,28.8850,-90.0250,10.0,16.9,297.0,21.0,'11111222,11111222,11111222' 
LOOP,urn:ioos:station:wmo:lopl1:1,2016-02-08T23:31:00Z,28.8850,-90.0250,10.0,18.1,289.0,21.6,'11111222,11111222,11111222' 
LOOP,urn:ioos:station:wmo:lopl1:1,2016-02-09T00:31:00Z,28.8850,-90.0250,10.0,19.8,304.0,22.8,'11111222,11111222,11111222' 
LOOP,urn:ioos:station:wmo:lopl1:1,2016-02-09T01:31:00Z,28.8850,-90.0250,10.0,17.6,312.0,21.4,'11111222,11111222,11111222' 
LOOP,urn:ioos:station:wmo:lopl1:1,2016-02-09T02:31:00Z,28.8850,-90.0250,10.0,16.5,306.0,19.3,'11111222,11111222,11111222' 
LOOP,urn:ioos:station:wmo:lopl1:1,2016-02-09T03:31:00Z,28.8850,-90.0250,10.0,17.7,312.0,21.4,'11111222,11111222,11111222' 
LOOP,urn:ioos:station:wmo:lopl1:1,2016-02-09T04:31:00Z,28.8850,-90.0250,10.0,15.8,309.0,20.9,'11111222,11111222,11111222' 
LOOP,urn:ioos:station:wmo:lopl1:1,2016-02-09T05:31:00Z,28.8850,-90.0250,10.0,12.4,314.0,17.0,'11111222,11111222,11111222' 
LOOP,urn:ioos:station:wmo:lopl1:1,2016-02-09T06:31:00Z,28.8850,-90.0250,10.0,14.1,310.0,19.5,'11111222,11111222,11111222' 